TimeCDT,TemperatureF,Dew PointF,Humidity,Sea Level PressureIn,VisibilityMPH,Wind Direction,Wind SpeedMPH,Gust SpeedMPH,PrecipitationIn,Events,Conditions,WindDirDegrees,DateUTC
12:52 AM,42.1,36.0,79,29.73,10.0,Calm,Calm,-,N/A,,Clear,0,2013-09-29 05:52:00
1:52 AM,42.1,36.0,79,29.72,10.0,Calm,Calm,-,N/A,,Clear,0,2013-09-29 06:52:00
2:52 AM,44.1,36.0,73,29.70,10.0,South,4.6,-,N/A,,Clear,170,2013-09-29 07:52:00
3:52 AM,39.9,35.1,83,29.68,-9999.0,Calm,Calm,-,N/A,,Unknown,0,2013-09-29 08:52:00
4:52 AM,-9999,-9999,N/A,29.66,-9999.0,North,-9999.0,-,N/A,,Unknown,0,2013-09-29 09:52:00
5:52 AM,-9999,-9999,N/A,29.64,-9999.0,North,-9999.0,-,N/A,,Unknown,0,2013-09-29 10:52:00
6:52 AM,-9999,-9999,N/A,29.62,-9999.0,North,-9999.0,-,N/A,,Unknown,0,2013-09-29 11:52:00
7:52 AM,-9999,-9999,N/A,29.61,-9999.0,North,-9999.0,-,N/A,,Unknown,0,2013-09-29 12:52:00
8:52 AM,-9999,-9999,N/A,29.60,-9999.0,North,-9999.0,-,N/A,,Unknown,0,2013-09-29 13:52:00
9:52 AM,52.0,42.1,69,29.60,10.0,Calm,Calm,-,N/A,,Unknown,0,2013-09-29 14:52:00
10:52 AM,55.9,41.0,57,29.59,10.0,Calm,Calm,-,N/A,,Clear,0,2013-09-29 15:52:00
11:52 AM,64.0,44.1,48,29.57,10.0,SW,10.4,-,N/A,,Partly Cloudy,220,2013-09-29 16:52:00
12:52 PM,63.0,42.1,46,29.55,10.0,SSW,6.9,-,N/A,,Overcast,200,2013-09-29 17:52:00
1:52 PM,73.0,41.0,31,29.49,10.0,South,11.5,20.7,N/A,,Overcast,190,2013-09-29 18:52:00
2:52 PM,72.0,39.9,31,29.48,10.0,SSW,11.5,-,N/A,,Mostly Cloudy,200,2013-09-29 19:52:00
3:52 PM,73.0,42.1,33,29.48,10.0,SW,6.9,-,N/A,,Overcast,220,2013-09-29 20:52:00
4:52 PM,77.0,37.9,24,29.48,10.0,West,15.0,24.2,N/A,,Clear,270,2013-09-29 21:52:00
5:52 PM,72.0,39.0,30,29.49,10.0,West,11.5,-,N/A,,Clear,260,2013-09-29 22:52:00
6:52 PM,71.1,39.9,32,29.50,10.0,West,12.7,-,N/A,,Clear,270,2013-09-29 23:52:00
7:52 PM,66.0,34.0,30,29.51,10.0,West,12.7,-,N/A,,Clear,270,2013-09-30 00:52:00
8:52 PM,63.0,34.0,34,29.53,10.0,West,10.4,-,N/A,,Clear,270,2013-09-30 01:52:00
9:52 PM,59.0,34.0,39,29.56,10.0,SW,8.1,-,N/A,,Mostly Cloudy,230,2013-09-30 02:52:00
10:52 PM,59.0,33.1,38,29.57,10.0,West,8.1,-,N/A,,Partly Cloudy,260,2013-09-30 03:52:00
11:52 PM,55.9,34.0,44,29.58,10.0,Calm,Calm,-,N/A,,Mostly Cloudy,0,2013-09-30 04:52:00